Starlink 33673

operational
NORAD ID: 63284 Int'l Des: 2025-053 Owner: SPXS Country: US Constellation: starlink
LEOCIRCULAR

关于 Starlink 33673

正在加载描述...

实时位置

正在加载3D地球...

即将过境

高度历史

Altitude vs Time

uPlot chart will show altitude changes over time

两行轨道根数

1 63284U 25053V 25260.02547554 .00024590 00000-0 90055-3 0 9997
2 63284 43.0024 134.7419 0001095 250.3565 109.7168 15.27564164 29833
Epoch: Sep 17, 2025 • Age: 31 hours

当前状态

高度 482.5 km
速度 7.63 km/s
星下点 0.31°N, 158.39°W
发射日期 Mar 15, 2025
运行时间 0.5 years
类型 internet

技术详情

分类 Payload
质量 575.00 kg
干质量 530.00 kg
总质量 575.00 kg
长度 0.30 m
直径 4.10 m
跨度 29.00 m
形状 Box + pan
制造商 SPXS
平台类型 Starlink V2MO
阶段状态 In Orbit
所有者/国家 SPXS/US

大型星座

Loading constellations...